TimeEST,TemperatureF,Dew PointF,Humidity,Sea Level PressureIn,VisibilityMPH,Wind Direction,Wind SpeedMPH,Gust SpeedMPH,PrecipitationIn,Events,Conditions,WindDirDegrees,DateUTC
12:15 AM,33.8,26.6,75,30.31,10.0,South,5.8,-,N/A,,Clear,190,2013-02-19 05:15:00
12:35 AM,33.8,26.6,75,30.31,10.0,South,6.9,-,N/A,,Clear,190,2013-02-19 05:35:00
12:55 AM,35.6,28.4,75,30.31,10.0,SSW,3.5,-,N/A,,Clear,200,2013-02-19 05:55:00
1:35 AM,35.6,30.2,81,30.28,10.0,South,3.5,-,N/A,,Clear,190,2013-02-19 06:35:00
1:55 AM,33.8,28.4,81,30.27,10.0,Calm,Calm,-,N/A,,Clear,0,2013-02-19 06:55:00
2:15 AM,35.6,30.2,81,30.26,10.0,South,4.6,-,N/A,,Clear,170,2013-02-19 07:15:00
2:35 AM,35.6,30.2,81,30.25,10.0,Calm,Calm,-,N/A,,Clear,0,2013-02-19 07:35:00
2:55 AM,35.6,30.2,81,30.25,10.0,South,3.5,-,N/A,,Clear,180,2013-02-19 07:55:00
3:15 AM,35.6,30.2,81,30.24,10.0,South,4.6,-,N/A,,Clear,170,2013-02-19 08:15:00
3:35 AM,37.4,32.0,81,30.23,10.0,South,3.5,-,N/A,,Clear,190,2013-02-19 08:35:00
3:55 AM,37.4,33.8,87,30.22,10.0,Calm,Calm,-,N/A,,Clear,0,2013-02-19 08:55:00
4:15 AM,37.4,33.8,87,30.22,10.0,Calm,Calm,-,N/A,,Clear,0,2013-02-19 09:15:00
4:35 AM,33.8,30.2,87,30.21,10.0,Calm,Calm,-,N/A,,Clear,0,2013-02-19 09:35:00
4:55 AM,37.4,33.8,87,30.20,10.0,South,3.5,-,N/A,,Clear,170,2013-02-19 09:55:00
5:15 AM,35.6,32.0,87,30.20,10.0,Calm,Calm,-,N/A,,Partly Cloudy,0,2013-02-19 10:15:00
5:35 AM,37.4,33.8,87,30.19,10.0,SSE,4.6,-,N/A,,Mostly Cloudy,160,2013-02-19 10:35:00
5:55 AM,37.4,35.6,93,30.19,10.0,Calm,Calm,-,N/A,,Scattered Clouds,0,2013-02-19 10:55:00
6:15 AM,39.2,37.4,93,30.17,10.0,SE,4.6,-,N/A,,Partly Cloudy,140,2013-02-19 11:15:00
6:55 AM,39.2,35.6,87,30.17,10.0,Calm,Calm,-,N/A,,Clear,0,2013-02-19 11:55:00
7:15 AM,39.2,35.6,87,30.16,10.0,ESE,5.8,-,N/A,,Clear,120,2013-02-19 12:15:00
7:35 AM,44.6,39.2,81,30.17,10.0,South,4.6,-,N/A,,Clear,170,2013-02-19 12:35:00
7:55 AM,46.4,42.8,87,30.17,10.0,SSE,4.6,-,N/A,,Mostly Cloudy,160,2013-02-19 12:55:00
8:15 AM,48.2,44.6,87,30.17,10.0,SSE,3.5,-,N/A,,Mostly Cloudy,160,2013-02-19 13:15:00
8:35 AM,51.8,46.4,82,30.16,10.0,South,5.8,-,N/A,,Partly Cloudy,190,2013-02-19 13:35:00
8:55 AM,53.6,46.4,77,30.16,10.0,South,9.2,-,N/A,,Partly Cloudy,170,2013-02-19 13:55:00
9:15 AM,55.4,46.4,72,30.15,10.0,SSE,6.9,-,N/A,,Partly Cloudy,160,2013-02-19 14:15:00
9:35 AM,55.4,46.4,72,30.14,10.0,South,6.9,-,N/A,,Clear,170,2013-02-19 14:35:00
9:55 AM,57.2,46.4,67,30.14,10.0,South,8.1,-,N/A,,Clear,190,2013-02-19 14:55:00
10:15 AM,57.2,48.2,72,30.13,10.0,South,8.1,-,N/A,,Clear,170,2013-02-19 15:15:00
10:35 AM,57.2,48.2,72,30.12,10.0,South,8.1,-,N/A,,Mostly Cloudy,180,2013-02-19 15:35:00
10:55 AM,59.0,48.2,67,30.12,10.0,South,8.1,-,N/A,,Mostly Cloudy,190,2013-02-19 15:55:00
11:15 AM,57.2,51.8,82,30.10,10.0,South,9.2,-,N/A,,Mostly Cloudy,180,2013-02-19 16:15:00
11:35 AM,59.0,51.8,77,30.08,10.0,South,5.8,-,N/A,,Partly Cloudy,180,2013-02-19 16:35:00
12:15 PM,57.2,53.6,88,30.07,8.0,SW,10.4,16.1,0.01,,Overcast,220,2013-02-19 17:15:00
12:35 PM,57.2,53.6,88,30.05,10.0,SW,8.1,-,0.01,,Overcast,220,2013-02-19 17:35:00
1:15 PM,57.2,51.8,82,30.01,10.0,SSW,10.4,-,N/A,,Mostly Cloudy,200,2013-02-19 18:15:00
1:35 PM,59.0,53.6,82,30.00,10.0,South,10.4,-,N/A,,Overcast,190,2013-02-19 18:35:00
1:55 PM,60.8,53.6,77,29.99,10.0,SSW,12.7,-,N/A,,Mostly Cloudy,200,2013-02-19 18:55:00
2:15 PM,60.8,51.8,72,29.96,10.0,SSW,10.4,-,N/A,,Scattered Clouds,200,2013-02-19 19:15:00
2:35 PM,60.8,50.0,68,29.96,10.0,SW,12.7,18.4,N/A,,Scattered Clouds,220,2013-02-19 19:35:00
2:55 PM,60.8,50.0,68,29.94,10.0,SW,10.4,-,N/A,,Scattered Clouds,220,2013-02-19 19:55:00
3:15 PM,60.8,48.2,63,29.94,10.0,WSW,16.1,24.2,N/A,,Mostly Cloudy,240,2013-02-19 20:15:00
3:35 PM,60.8,46.4,59,29.94,10.0,SW,18.4,24.2,N/A,,Overcast,220,2013-02-19 20:35:00
3:55 PM,60.8,46.4,59,29.94,10.0,SW,13.8,25.3,N/A,,Overcast,220,2013-02-19 20:55:00
4:15 PM,59.0,46.4,63,29.92,10.0,SW,13.8,17.3,N/A,,Overcast,220,2013-02-19 21:15:00
4:35 PM,59.0,46.4,63,29.92,10.0,SW,10.4,-,N/A,,Overcast,230,2013-02-19 21:35:00
4:55 PM,59.0,46.4,63,29.92,10.0,SW,13.8,21.9,N/A,,Overcast,230,2013-02-19 21:55:00
5:15 PM,57.2,48.2,72,29.93,10.0,SW,19.6,26.5,N/A,,Overcast,220,2013-02-19 22:15:00
5:35 PM,55.4,48.2,77,29.92,10.0,SSW,16.1,26.5,N/A,,Overcast,210,2013-02-19 22:35:00
5:55 PM,57.2,48.2,72,29.92,10.0,SSW,15.0,24.2,N/A,,Overcast,210,2013-02-19 22:55:00
6:15 PM,57.2,48.2,72,29.92,10.0,SSW,18.4,26.5,N/A,,Overcast,210,2013-02-19 23:15:00
7:35 PM,55.4,51.8,88,29.93,10.0,SW,13.8,19.6,N/A,,Overcast,220,2013-02-20 00:35:00
7:55 PM,55.4,51.8,88,29.93,10.0,SSW,13.8,20.7,N/A,,Scattered Clouds,210,2013-02-20 00:55:00
8:15 PM,53.6,51.8,94,29.93,10.0,SW,11.5,19.6,N/A,,Clear,220,2013-02-20 01:15:00
8:35 PM,53.6,51.8,94,29.94,10.0,WSW,10.4,19.6,N/A,,Scattered Clouds,240,2013-02-20 01:35:00
8:55 PM,53.6,48.2,82,29.94,10.0,WSW,17.3,23.0,N/A,,Mostly Cloudy,240,2013-02-20 01:55:00
9:15 PM,53.6,48.2,82,29.95,10.0,WSW,10.4,16.1,N/A,,Mostly Cloudy,250,2013-02-20 02:15:00
9:35 PM,53.6,44.6,72,29.96,10.0,West,11.5,24.2,N/A,,Mostly Cloudy,260,2013-02-20 02:35:00
10:15 PM,51.8,41.0,67,29.97,10.0,West,9.2,-,N/A,,Partly Cloudy,260,2013-02-20 03:15:00
10:35 PM,51.8,42.8,71,29.97,10.0,WSW,9.2,-,N/A,,Mostly Cloudy,250,2013-02-20 03:35:00
10:55 PM,51.8,42.8,71,29.97,10.0,WSW,8.1,20.7,N/A,,Scattered Clouds,250,2013-02-20 03:55:00
11:15 PM,50.0,42.8,76,29.97,10.0,West,6.9,-,N/A,,Clear,260,2013-02-20 04:15:00
11:35 PM,48.2,42.8,82,29.97,10.0,WSW,5.8,-,N/A,,Clear,250,2013-02-20 04:35:00
11:55 PM,48.2,42.8,82,29.97,10.0,WSW,6.9,-,N/A,,Clear,250,2013-02-20 04:55:00